Main page
METAR-TAF:

METAR-TAF

Airports :

Teniente Coronel Luis A. Mantilla International Airport

Tulcán, Ecuador

latitude: 00-48-34N, longitude: 077-42-29W, elevation: 2941 m

Current weather observation

The report was made 46 minutes ago, at 21:00 UTC
Wind 8 kt from the East/Southeast
Temperature 13°C
Humidity 62%
Pressure 1033 hPa
Visibility 10 km or more
Overcast at a height of 2000 ft

METAR: SETU 172100Z 12008KT 9999 OVC020 13/06 Q1033

Time: 16:46 (21:46 UTC)


TAF: missing

Weather observations and forecasts of more than 4000 airports (METAR and TAF reports).

The available stations are represented by yellow and red dots on the map.

Hover mouse over dot to see the name of the station.

Then click to see weather observations and forecasts.

To change the map : click on the green buttons with a black cross to zoom in, on the green button with a dash to zoom out, or on the green arrows for adjacent maps.


METAR-TAF: